Date String (YYYY-MM-DD hh:mm:ss) UTC,Instrument flags,Ambient pressure (hPa),Sample flow (lpm),Bypass flow (lpm),Sample temperature (°C),Ambient temperature (°C),ASC tube jacket temperature (°C),LED temperature (°C),Box temperature (°C),Sample RH (%),Span deviation,Mass concentration (μg/m³),Mass concentration (μg/m³),Mass concentration (μg/m³)
DateTimeUTC,F1_M11,P_M11,Q1_M11,Q2_M11,T1_M11,T2_M11,T3_M11,T4_M11,T5_M11,U1_M11,ZSPAN_M11,X0_M11,X2_M11,X1_M11
2022-12-13 10:00:00,,0810.2,5.00,0.00,21.6,19.5,00.0,30.6,23.2,13.1,-000.6,0011.97,0008.57,0007.90
2022-12-13 10:01:00,,0810.2,5.00,0.00,21.6,19.4,00.0,30.6,23.2,13.1,-000.5,0011.89,0008.52,0007.88
2022-12-13 10:02:00,,0810.2,5.01,0.00,21.5,19.7,00.0,30.5,23.2,13.0,-000.4,0011.73,0008.44,0007.84
2022-12-13 10:03:00,,0810.3,5.00,0.00,21.6,21.0,00.0,30.5,23.5,13.0,-000.4,0011.57,0008.38,0007.81
2022-12-13 10:04:00,,0810.3,5.00,0.00,21.7,21.8,00.0,30.5,23.7,12.9,-000.3,0011.45,0008.34,0007.77
2022-12-13 10:05:00,,0810.3,4.99,0.00,21.8,21.5,00.0,30.6,23.7,12.8,-000.3,0011.46,0008.30,0007.72
2022-12-13 10:06:00,,0810.3,5.00,0.00,21.8,21.1,00.0,30.6,23.6,12.8,-000.3,0011.48,0008.24,0007.67
2022-12-13 10:07:00,,0810.2,4.99,0.00,21.8,20.7,00.0,30.6,23.5,12.9,0000.0,0011.36,0008.17,0007.64
2022-12-13 10:08:00,,0810.2,5.01,0.00,21.7,20.4,00.0,30.6,23.5,12.6,0000.2,0011.19,0008.02,0007.50
2022-12-13 10:09:00,,0810.2,5.00,0.00,21.7,20.1,00.0,30.6,23.4,12.1,0000.7,0010.83,0007.71,0007.24
2022-12-13 10:10:00,,0810.2,5.00,0.00,21.7,19.9,00.0,30.6,23.3,11.8,0000.6,0010.48,0007.43,0006.99
2022-12-13 10:11:00,,0810.2,5.01,0.00,21.6,19.8,00.0,30.6,23.3,11.6,0000.3,0010.18,0007.20,0006.78
2022-12-13 10:12:00,,0810.2,5.00,0.00,21.6,19.7,00.0,30.5,23.2,11.5,0000.3,0010.34,0006.98,0006.57
2022-12-13 10:13:00,,0810.3,5.00,0.00,21.5,19.5,00.0,30.5,23.2,11.4,0000.4,0009.99,0006.69,0006.32
2022-12-13 10:14:00,,0810.3,5.00,0.00,21.5,19.4,00.0,30.5,23.1,11.3,0000.2,0009.61,0006.41,0006.06
2022-12-13 10:15:00,,0810.3,5.00,0.00,21.5,19.4,00.0,30.5,23.1,11.2,0000.0,0009.40,0006.11,0005.80
2022-12-13 10:16:00,,0810.3,5.01,0.00,21.5,20.4,00.0,30.4,23.3,11.2,0000.0,0009.07,0005.81,0005.54
2022-12-13 10:17:00,,0810.3,4.98,0.00,21.6,21.4,00.0,30.5,23.5,11.0,0000.0,0008.60,0005.51,0005.29
2022-12-13 10:18:00,,0810.3,5.03,0.00,21.7,21.3,00.0,30.5,23.5,11.0,0000.0,0008.23,0005.22,0005.04
2022-12-13 10:19:00,,0810.3,4.98,0.00,21.7,20.9,00.0,30.5,23.4,11.0,0000.0,0007.87,0004.96,0004.83
2022-12-13 10:20:00,,0810.3,5.01,0.00,21.6,20.5,00.0,30.5,23.3,11.0,0000.0,0007.75,0004.88,0004.78
2022-12-13 10:21:00,,0810.2,5.00,0.00,21.6,20.2,00.0,30.5,23.3,11.0,0000.0,0007.68,0004.85,0004.75
2022-12-13 10:22:00,,0810.3,5.00,0.00,21.6,20.0,00.0,30.5,23.2,11.0,0000.0,0007.63,0004.81,0004.72
2022-12-13 10:23:00,,0810.2,5.00,0.00,21.5,19.8,00.0,30.5,23.2,11.1,0000.0,0007.23,0004.79,0004.68
2022-12-13 10:24:00,,0810.2,5.00,0.00,21.5,19.7,00.0,30.5,23.2,11.1,0000.0,0007.06,0004.77,0004.66
2022-12-13 10:25:00,,0810.3,5.00,0.00,21.5,19.6,00.0,30.4,23.1,11.1,0000.0,0007.07,0004.75,0004.63
2022-12-13 10:26:00,,0810.3,4.99,0.00,21.4,19.5,00.0,30.4,23.1,11.1,0000.0,0006.81,0004.72,0004.59
2022-12-13 10:27:00,,0810.3,5.00,0.00,21.4,19.4,00.0,30.4,23.0,11.1,0000.0,0006.61,0004.68,0004.55
2022-12-13 10:28:00,,0810.2,5.00,0.00,21.4,19.5,00.0,30.4,23.1,11.1,0000.0,0006.54,0004.65,0004.52
2022-12-13 10:29:00,,0810.2,5.02,0.00,21.5,20.7,00.0,30.3,23.3,11.0,0000.0,0006.35,0004.59,0004.47
2022-12-13 10:30:00,,0810.2,4.98,0.00,21.6,21.6,00.0,30.4,23.5,10.9,0000.0,0006.20,0004.53,0004.41
2022-12-13 10:31:00,,0810.2,5.03,0.00,21.6,21.2,00.0,30.4,23.4,10.9,0000.0,0006.06,0004.49,0004.36
2022-12-13 10:32:00,,0810.2,4.97,0.00,21.6,20.7,00.0,30.4,23.3,10.9,0000.0,0005.95,0004.44,0004.33
2022-12-13 10:33:00,,0810.2,5.01,0.00,21.5,20.3,00.0,30.4,23.2,10.9,0000.0,0005.83,0004.40,0004.29
2022-12-13 10:34:00,,0810.2,5.00,0.00,21.5,20.0,00.0,30.4,23.2,10.8,0000.0,0005.59,0004.35,0004.26
2022-12-13 10:35:00,,0810.2,5.00,0.00,21.5,19.8,00.0,30.4,23.1,10.8,0000.0,0005.63,0004.33,0004.23
2022-12-13 10:36:00,,0810.2,5.00,0.00,21.4,19.6,00.0,30.4,23.0,10.8,0000.0,0005.60,0004.29,0004.19
2022-12-13 10:37:00,,0810.2,5.00,0.00,21.4,19.5,00.0,30.3,23.0,10.9,0000.0,0005.51,0004.25,0004.17
2022-12-13 10:38:00,,0810.2,5.04,0.00,21.4,19.4,00.0,30.3,23.0,10.9,0000.0,0005.52,0004.24,0004.16
2022-12-13 10:39:00,,0810.2,4.95,0.00,21.3,19.3,00.0,30.3,22.9,10.9,0000.0,0005.96,0004.24,0004.15
2022-12-13 10:40:00,,0810.3,5.03,0.00,21.3,19.3,00.0,30.3,22.9,11.0,0000.0,0006.15,0004.25,0004.15
2022-12-13 10:41:00,,0810.2,4.98,0.00,21.3,20.4,00.0,30.3,23.1,10.9,0000.0,0006.22,0004.26,0004.16
2022-12-13 10:42:00,,0810.2,5.03,0.00,21.4,21.5,00.0,30.3,23.4,10.9,0000.0,0006.21,0004.24,0004.15
2022-12-13 10:43:00,,0810.2,4.98,0.00,21.5,21.5,00.0,30.3,23.4,10.8,0000.0,0006.22,0004.23,0004.13
2022-12-13 10:44:00,,0810.2,5.02,0.00,21.5,20.9,00.0,30.3,23.3,10.8,0000.0,0006.21,0004.22,0004.11
2022-12-13 10:45:00,,0810.2,4.97,0.00,21.5,20.5,00.0,30.3,23.2,10.7,0000.0,0006.27,0004.21,0004.09
2022-12-13 10:46:00,,0810.2,5.01,0.00,21.5,20.2,00.0,30.3,23.2,10.7,0000.0,0006.18,0004.20,0004.08
2022-12-13 10:47:00,,0810.2,5.00,0.00,21.4,19.9,00.0,30.3,23.1,10.6,0000.0,0006.17,0004.19,0004.07
2022-12-13 10:48:00,,0810.2,5.00,0.00,21.4,19.7,00.0,30.3,23.0,10.6,0000.0,0006.24,0004.19,0004.05
2022-12-13 10:49:00,,0810.2,5.00,0.00,21.4,19.5,00.0,30.3,23.0,10.6,0000.0,0006.23,0004.17,0004.03
2022-12-13 10:50:00,,0810.2,5.00,0.00,21.3,19.4,00.0,30.3,22.9,10.6,0000.0,0005.83,0004.14,0004.00
2022-12-13 10:51:00,,0810.2,5.00,0.00,21.3,19.3,00.0,30.3,22.9,10.6,0000.0,0005.53,0004.11,0003.98
2022-12-13 10:52:00,,0810.2,5.03,0.00,21.3,19.2,00.0,30.2,22.8,10.7,0000.0,0005.40,0004.09,0003.97
2022-12-13 10:53:00,,0810.2,4.95,0.00,21.3,20.0,00.0,30.2,23.0,10.7,0000.0,0005.47,0004.11,0003.97
2022-12-13 10:54:00,,0810.2,5.03,0.00,21.4,21.2,00.0,30.2,23.2,10.6,0000.0,0005.47,0004.11,0003.98
2022-12-13 10:55:00,,0810.2,4.97,0.00,21.5,21.6,00.0,30.3,23.4,10.5,0000.0,0005.58,0004.12,0003.97
2022-12-13 10:56:00,,0810.2,5.02,0.00,21.5,21.1,00.0,30.3,23.3,10.5,0000.0,0005.52,0004.12,0003.98
2022-12-13 10:57:00,,0810.2,4.97,0.00,21.5,20.6,00.0,30.3,23.2,10.5,0000.0,0005.48,0004.11,0003.99
2022-12-13 10:58:00,,0810.2,5.01,0.00,21.4,20.2,00.0,30.3,23.1,10.5,0000.0,0005.50,0004.13,0004.00
2022-12-13 10:59:00,,0810.1,5.00,0.00,21.4,19.8,00.0,30.3,23.0,10.6,0000.0,0005.55,0004.14,0004.01
